Regional Weather Roundup
Issued by NWS Mobile, AL

Home | Current Version | Previous Version | Text Only | Print | Product List | Glossary On
Versions: 1 2 3 4 5 6 7 8 9 10 11 12 13 14 15 16 17 18 19 20 21 22 23 24 25 26 27 28 29 30 31 32 33 34 35 36 37 38 39 40 41 42 43 44 45 46 47 48 49
000
ASUS44 KMOB 241912
RWRMOB
REGIONAL WEATHER ROUNDUP
NATIONAL WEATHER SERVICE MOBILE AL
200 PM CDT MON APR 24 2017

NOTE: "FAIR" INDICATES FEW OR NO CLOUDS BELOW 12,000 FEET WITH NO
      SIGNIFICANT WEATHER AND/OR OBSTRUCTIONS TO VISIBILITY.

  * THESE STATIONS ARE PART OF THE UNIVERSITY OF SOUTH ALABAMA
    MESONET AND ARE NOT UNDER NWS OR FAA QUALITY CONTROL.

ALZ061>064-242000-
COASTAL ALABAMA

CITY           SKY/WX    TMP DP  RH WIND       PRES   REMARKS
MOBILE REG APT MOSUNNY   74  49  41 NW9G20    29.83F
BROOKLEY FIELD MOSUNNY   75  52  44 N10G20    29.83F
USA CAMPUS*      N/A     73  52  46 W3        29.82F
DOG RIVER*       N/A     72  54  53 N6        30.50


CITY           SKY/WX    TMP DP  RH WIND       PRES   REMARKS
GULF SHORES    CLOUDY    70  52  51 NW16      29.82F

$$

ALZ051>060-242000-
INTERIOR SOUTHWEST AND SOUTH CENTRAL ALABAMA

CITY           SKY/WX    TMP DP  RH WIND       PRES   REMARKS
GREENVILLE     PTSUNNY   67  46  47 NW9       29.80F
EVERGREEN      CLOUDY    63  51  65 VRB6      29.83S
ATMORE*          N/A     63  54  72 NW16      29.86S
ANDALUSIA/OPP  PTSUNNY   71  47  42 W10G18    29.79F
ANDALUSIA*       N/A     64  50  59 NW5       29.80F
FLORALA APT    MOSUNNY   67  48  50 N7        29.81F
FLORALA*         N/A     64  48  55 SW6       30.45F

$$

FLZ001>006-242000-
WESTERN FLORIDA PANHANDLE

CITY           SKY/WX    TMP DP  RH WIND       PRES   REMARKS
PENSACOLA      PTSUNNY   67  52  58 N12       29.83F
NAS PENSACOLA  PTSUNNY   68  51  54 N12G20    29.82F
MILTON         PTSUNNY   63  52  67 NW9       29.83F
WHTNG S FIELD  CLOUDY    67  53  61 NW10      29.83F


CITY           SKY/WX    TMP DP  RH WIND       PRES   REMARKS
JAY*             N/A     61  50  67 NW9       29.84F
DUKE FIELD     PTSUNNY   65  49  55 N14G20    29.81F
CRESTVIEW      PTSUNNY   66  49  54 N14       29.82F
VALPARAISO     PTSUNNY   64  49  57 NW18      29.82F
DESTIN         CLOUDY    66  53  63 NW13      29.82F

$$

MSZ076-079-242000-
INTERIOR SOUTHEAST MISSISSIPPI

CITY           SKY/WX    TMP DP  RH WIND       PRES   REMARKS
LEAKESVILLE*   NOT AVBL
AGRICOLA*        N/A     73  52  46 NW3       29.82

$$

MARINE OBSERVATIONS

STATION/POSITION TIME  TEMP    WIND        PRES    WAVE
                       AIR SEA DIR/SP/G            HT/PER
                 (UTC) (F)     (DEG/KT/KT) (MB)    (FT/S)
PASCAGOULA       1848   75     340/ 13/ 21 1009.3F
PETIT BOIS ISLND 1848   73     310/ 12/ 16 1010.4F
GRAND BAY        1745   71     320/ 11     1011.0F
KATRINA CUT      1830   70     310/ 11     1009.8F
CEDAR POINT      1830   70     300/ 10     1009.5F
E DAUPHIN ISLAND 1800   69     290/ 10/ 13 1010.1F
MIDDLE BAY LIGHT 1830   70     340/ 11     1009.8F
USCG MOBILE BAY  1848   70 74  360/  9/ 14 1010.2F
STATE DOCKS      1848   73 74              1009.6F
MEAHER PARK      1830   68     340/  9     1010.2F
FORT MORGAN      1848   70     300/ 12/ 14   N/A
12 S ORANGE BCH  1850   67 73  320/ 14/ 17 1009.4F   2/ 3
PENSACOLA BAY    1848   65 76  320/ 10/ 17 1010.1F
64 S DAUPHIN ISL 1900   68 74  300/ 16/ 21 1011.0
67 S FORT MORGAN 1830   69        CALM     1010.8F

$$

SELECTED LOCATIONS ACROSS THE REGION

CITY           SKY/WX    TMP DP  RH WIND       PRES   REMARKS
NEW ORLEANS    SUNNY     74  49  41 N13G22    29.86F
GULFPORT       SUNNY     78  48  34 NW20      29.82F
PASCAGOULA AP  SUNNY     76  49  38 VRB7G20   29.81F
PASCAGOULA*    NOT AVBL
HATTIESBURG    MOSUNNY   73  50  44 N16G22    29.85F
LAUREL         MOSUNNY   73  52  46 N13       29.85F
MERIDIAN       CLOUDY    67  54  63 N9G16     29.86S
JACKSON        MOSUNNY   74  52  46 N12       29.87F
MONTGOMERY     CLOUDY    69  49  48 W10       29.80S
TROY           PTSUNNY   67  50  54 NW12      29.80F
ASHFORD*         N/A     64  50  59 NW5       29.80F
DOTHAN         CLOUDY    67  52  58 NW9       29.81F
PANAMA CITY    CLOUDY    64  50  60 NW8       29.80F

$$




USA.gov is the U.S. government's official web portal to all federal, state and local government web resources and services.